Time,TemperatureF,DewpointF,PressureIn,WindDirection,WindDirectionDegrees,WindSpeedMPH,WindSpeedGustMPH,Humidity,HourlyPrecipIn,Conditions,Clouds,dailyrainin,SoftwareType,DateUTC
2013-02-08 00:00:00,50.4,29.2,27.33,East,90,2.5,2.7,44,0.00,,,0.00,WUHU216HW,2013-02-08 07:00:00,
2013-02-08 00:05:00,50.6,29.3,27.33,NE,45,1.3,2.7,44,0.00,,,0.00,WUHU216HW,2013-02-08 07:05:00,
2013-02-08 00:10:00,50.8,29.5,27.33,ESE,113,0.9,2.7,44,0.00,,,0.00,WUHU216HW,2013-02-08 07:10:00,
2013-02-08 00:15:00,50.8,29.5,27.33,ESE,113,1.3,2.7,44,0.00,,,0.00,WUHU216HW,2013-02-08 07:15:00,
2013-02-08 00:20:00,50.8,29.5,27.32,ESE,113,2.0,2.9,44,0.00,,,0.00,WUHU216HW,2013-02-08 07:20:00,
2013-02-08 00:25:00,50.8,29.5,27.32,NE,45,2.2,3.1,44,0.00,,,0.00,WUHU216HW,2013-02-08 07:25:00,
2013-02-08 00:30:00,50.8,29.5,27.32,ESE,113,0.7,3.1,44,0.00,,,0.00,WUHU216HW,2013-02-08 07:30:00,
2013-02-08 00:35:00,50.8,29.5,27.32,NE,45,1.3,2.5,44,0.00,,,0.00,WUHU216HW,2013-02-08 07:35:00,
2013-02-08 00:40:00,50.6,29.3,27.32,SE,135,0.9,2.5,44,0.00,,,0.00,WUHU216HW,2013-02-08 07:40:00,
2013-02-08 00:45:00,50.4,29.2,27.32,ESE,113,1.8,2.7,44,0.00,,,0.00,WUHU216HW,2013-02-08 07:45:00,
2013-02-08 00:50:00,50.2,29.6,27.32,SSE,158,0.9,2.7,45,0.00,,,0.00,WUHU216HW,2013-02-08 07:50:00,
2013-02-08 00:55:00,50.0,29.4,27.33,ESE,113,1.8,2.7,45,0.00,,,0.00,WUHU216HW,2013-02-08 07:55:00,
2013-02-08 01:00:00,49.9,29.3,27.32,SE,135,2.5,2.9,45,0.00,,,0.00,WUHU216HW,2013-02-08 08:00:00,
2013-02-08 01:05:00,50.0,29.4,27.32,ESE,113,2.5,3.4,45,0.00,,,0.00,WUHU216HW,2013-02-08 08:05:00,
2013-02-08 01:10:00,50.0,29.4,27.32,East,90,3.4,3.8,45,0.00,,,0.00,WUHU216HW,2013-02-08 08:10:00,
2013-02-08 01:15:00,50.2,29.6,27.32,ESE,113,2.7,4.0,45,0.00,,,0.00,WUHU216HW,2013-02-08 08:15:00,
2013-02-08 01:20:00,50.2,29.6,27.32,ESE,113,2.5,4.9,45,0.00,,,0.00,WUHU216HW,2013-02-08 08:20:00,
2013-02-08 01:25:00,50.4,29.2,27.32,ESE,113,1.1,4.9,44,0.00,,,0.00,WUHU216HW,2013-02-08 08:25:00,
2013-02-08 01:30:00,50.4,29.2,27.31,East,90,2.5,3.8,44,0.00,,,0.00,WUHU216HW,2013-02-08 08:30:00,
2013-02-08 01:35:00,50.4,29.2,27.31,ESE,113,3.8,4.0,44,0.00,,,0.00,WUHU216HW,2013-02-08 08:35:00,
2013-02-08 01:40:00,50.4,28.6,27.32,ESE,113,2.9,4.3,43,0.00,,,0.00,WUHU216HW,2013-02-08 08:40:00,
2013-02-08 01:45:00,50.4,28.6,27.31,NNE,23,2.5,4.3,43,0.00,,,0.00,WUHU216HW,2013-02-08 08:45:00,
2013-02-08 01:50:00,50.4,29.2,27.31,NNE,23,3.4,3.6,44,0.00,,,0.00,WUHU216HW,2013-02-08 08:50:00,
2013-02-08 01:55:00,50.2,29.1,27.31,East,90,2.9,4.0,44,0.00,,,0.00,WUHU216HW,2013-02-08 08:55:00,
2013-02-08 02:00:00,50.0,28.9,27.30,East,90,2.5,4.0,44,0.00,,,0.00,WUHU216HW,2013-02-08 09:00:00,
2013-02-08 02:05:00,49.7,29.1,27.31,ESE,113,2.5,3.6,45,0.00,,,0.00,WUHU216HW,2013-02-08 09:05:00,
2013-02-08 02:10:00,49.7,29.1,27.30,ESE,113,1.8,4.9,45,0.00,,,0.00,WUHU216HW,2013-02-08 09:10:00,
2013-02-08 02:15:00,49.7,29.1,27.30,ESE,113,3.6,4.9,45,0.00,,,0.00,WUHU216HW,2013-02-08 09:15:00,
2013-02-08 02:20:00,49.5,28.9,27.30,ESE,113,2.2,4.5,45,0.00,,,0.00,WUHU216HW,2013-02-08 09:20:00,
2013-02-08 02:25:00,49.5,28.9,27.30,East,90,2.5,3.8,45,0.00,,,0.00,WUHU216HW,2013-02-08 09:25:00,
2013-02-08 02:30:00,49.5,29.4,27.30,East,90,1.3,3.8,46,0.00,,,0.00,WUHU216HW,2013-02-08 09:30:00,
2013-02-08 02:35:00,49.5,28.9,27.30,ESE,113,0.4,2.9,45,0.00,,,0.00,WUHU216HW,2013-02-08 09:35:00,
2013-02-08 02:40:00,49.5,28.9,27.30,ESE,113,1.6,2.9,45,0.00,,,0.00,WUHU216HW,2013-02-08 09:40:00,
2013-02-08 02:45:00,49.3,28.7,27.31,ESE,113,0.2,2.7,45,0.00,,,0.00,WUHU216HW,2013-02-08 09:45:00,
2013-02-08 02:50:00,49.3,28.7,27.30,ENE,68,0.9,2.7,45,0.00,,,0.00,WUHU216HW,2013-02-08 09:50:00,
2013-02-08 02:55:00,49.3,28.7,27.30,ENE,68,0.9,1.8,45,0.00,,,0.00,WUHU216HW,2013-02-08 09:55:00,
2013-02-08 03:00:00,49.0,28.5,27.30,East,90,0.0,1.8,45,0.00,,,0.00,WUHU216HW,2013-02-08 10:00:00,
2013-02-08 03:05:00,48.8,29.4,27.31,NNW,338,0.4,1.8,47,0.00,,,0.00,WUHU216HW,2013-02-08 10:05:00,
2013-02-08 03:10:00,48.6,28.6,27.31,ENE,68,0.0,1.6,46,0.00,,,0.00,WUHU216HW,2013-02-08 10:10:00,
2013-02-08 03:15:00,48.1,28.1,27.31,ENE,68,0.0,0.4,46,0.00,,,0.00,WUHU216HW,2013-02-08 10:15:00,
2013-02-08 03:20:00,47.9,27.9,27.30,ENE,68,0.9,2.0,46,0.00,,,0.00,WUHU216HW,2013-02-08 10:20:00,
2013-02-08 03:25:00,47.9,27.9,27.30,ENE,68,1.1,2.2,46,0.00,,,0.00,WUHU216HW,2013-02-08 10:25:00,
2013-02-08 03:30:00,47.9,27.9,27.30,ENE,68,0.9,2.2,46,0.00,,,0.00,WUHU216HW,2013-02-08 10:30:00,
2013-02-08 03:35:00,47.5,27.6,27.30,East,90,0.9,1.6,46,0.00,,,0.00,WUHU216HW,2013-02-08 10:35:00,
2013-02-08 03:40:00,47.5,27.6,27.30,East,90,0.9,1.8,46,0.00,,,0.00,WUHU216HW,2013-02-08 10:40:00,
2013-02-08 03:45:00,47.5,28.2,27.30,ENE,68,2.2,2.7,47,0.00,,,0.00,WUHU216HW,2013-02-08 10:45:00,
2013-02-08 03:50:00,47.5,28.2,27.30,SE,135,2.0,3.8,47,0.00,,,0.00,WUHU216HW,2013-02-08 10:50:00,
2013-02-08 03:55:00,47.7,28.4,27.29,ENE,68,1.3,3.8,47,0.00,,,0.00,WUHU216HW,2013-02-08 10:55:00,
2013-02-08 04:00:00,47.7,27.8,27.29,ENE,68,1.3,2.5,46,0.00,,,0.00,WUHU216HW,2013-02-08 11:00:00,
2013-02-08 04:05:00,47.7,28.4,27.29,ESE,113,1.8,2.7,47,0.00,,,0.00,WUHU216HW,2013-02-08 11:05:00,
2013-02-08 04:10:00,47.9,28.4,27.29,ESE,113,3.4,3.4,47,0.00,,,0.00,WUHU216HW,2013-02-08 11:10:00,
2013-02-08 04:15:00,47.9,27.9,27.28,East,90,1.6,3.4,46,0.00,,,0.00,WUHU216HW,2013-02-08 11:15:00,
2013-02-08 04:20:00,47.9,27.9,27.28,East,90,2.0,2.9,46,0.00,,,0.00,WUHU216HW,2013-02-08 11:20:00,
2013-02-08 04:25:00,47.7,27.8,27.28,East,90,1.1,2.9,46,0.00,,,0.00,WUHU216HW,2013-02-08 11:25:00,
2013-02-08 04:30:00,47.7,27.8,27.28,North,0,1.3,2.9,46,0.00,,,0.00,WUHU216HW,2013-02-08 11:30:00,
2013-02-08 04:35:00,47.7,28.4,27.28,NNE,23,2.0,2.7,47,0.00,,,0.00,WUHU216HW,2013-02-08 11:35:00,
2013-02-08 04:40:00,47.7,28.4,27.28,East,90,3.4,3.4,47,0.00,,,0.00,WUHU216HW,2013-02-08 11:40:00,
2013-02-08 04:45:00,47.9,28.4,27.28,ENE,68,1.1,3.4,47,0.00,,,0.00,WUHU216HW,2013-02-08 11:45:00,
2013-02-08 04:50:00,48.1,28.1,27.28,ESE,113,2.2,3.4,46,0.00,,,0.00,WUHU216HW,2013-02-08 11:50:00,
2013-02-08 04:55:00,48.4,28.5,27.27,ESE,113,2.5,3.4,46,0.00,,,0.00,WUHU216HW,2013-02-08 11:55:00,
2013-02-08 05:00:00,48.6,28.6,27.27,SE,135,2.5,3.8,46,0.00,,,0.00,WUHU216HW,2013-02-08 12:00:00,
2013-02-08 05:05:00,48.8,28.8,27.27,SE,135,3.1,4.7,46,0.00,,,0.00,WUHU216HW,2013-02-08 12:05:00,
2013-02-08 05:10:00,49.0,28.5,27.27,East,90,3.4,4.7,45,0.00,,,0.00,WUHU216HW,2013-02-08 12:10:00,
2013-02-08 05:15:00,49.0,28.5,27.27,East,90,2.5,3.8,45,0.00,,,0.00,WUHU216HW,2013-02-08 12:15:00,
2013-02-08 05:20:00,49.3,28.2,27.27,North,0,1.3,3.8,44,0.00,,,0.00,WUHU216HW,2013-02-08 12:20:00,
2013-02-08 05:25:00,49.5,28.4,27.27,SE,135,2.7,4.7,44,0.00,,,0.00,WUHU216HW,2013-02-08 12:25:00,
2013-02-08 05:30:00,49.7,28.0,27.27,ENE,68,1.6,4.7,43,0.00,,,0.00,WUHU216HW,2013-02-08 12:30:00,
2013-02-08 05:35:00,49.7,28.0,27.27,East,90,2.7,4.0,43,0.00,,,0.00,WUHU216HW,2013-02-08 12:35:00,
2013-02-08 05:40:00,49.7,28.0,27.27,East,90,2.5,4.0,43,0.00,,,0.00,WUHU216HW,2013-02-08 12:40:00,
2013-02-08 05:45:00,49.7,28.0,27.26,ESE,113,0.9,4.0,43,0.00,,,0.00,WUHU216HW,2013-02-08 12:45:00,
2013-02-08 05:50:00,49.7,28.0,27.26,WSW,248,0.2,3.8,43,0.00,,,0.00,WUHU216HW,2013-02-08 12:50:00,
2013-02-08 05:55:00,49.3,27.6,27.26,ESE,113,0.7,3.8,43,0.00,,,0.00,WUHU216HW,2013-02-08 12:55:00,
2013-02-08 06:00:00,49.0,27.3,27.26,East,90,0.9,1.8,43,0.00,,,0.00,WUHU216HW,2013-02-08 13:00:00,
2013-02-08 06:05:00,48.8,27.2,27.26,ESE,113,1.8,3.1,43,0.00,,,0.00,WUHU216HW,2013-02-08 13:05:00,
2013-02-08 06:10:00,49.0,27.9,27.26,SE,135,2.9,3.1,44,0.00,,,0.00,WUHU216HW,2013-02-08 13:10:00,
2013-02-08 06:15:00,49.0,27.9,27.26,East,90,0.4,2.9,44,0.00,,,0.00,WUHU216HW,2013-02-08 13:15:00,
2013-02-08 06:20:00,49.0,27.3,27.26,NE,45,4.5,4.5,43,0.00,,,0.00,WUHU216HW,2013-02-08 13:20:00,
2013-02-08 06:25:00,49.1,27.5,27.26,ESE,113,1.8,4.5,43,0.00,,,0.00,WUHU216HW,2013-02-08 13:25:00,
2013-02-08 06:30:00,49.3,27.6,27.26,ENE,68,0.7,4.0,43,0.00,,,0.00,WUHU216HW,2013-02-08 13:30:00,
2013-02-08 06:35:00,49.3,27.6,27.26,SE,135,1.6,4.0,43,0.00,,,0.00,WUHU216HW,2013-02-08 13:35:00,
2013-02-08 06:40:00,49.3,27.6,27.26,ESE,113,1.8,3.4,43,0.00,,,0.00,WUHU216HW,2013-02-08 13:40:00,
2013-02-08 06:45:00,49.3,27.1,27.26,East,90,1.8,3.4,42,0.00,,,0.00,WUHU216HW,2013-02-08 13:45:00,
2013-02-08 06:50:00,49.3,27.1,27.26,ENE,68,0.9,2.9,42,0.00,,,0.00,WUHU216HW,2013-02-08 13:50:00,
2013-02-08 06:55:00,49.3,27.1,27.26,SE,135,1.8,2.9,42,0.00,,,0.00,WUHU216HW,2013-02-08 13:55:00,
2013-02-08 07:00:00,49.1,26.9,27.26,ESE,113,1.8,2.2,42,0.00,,,0.00,WUHU216HW,2013-02-08 14:00:00,
2013-02-08 07:05:00,48.6,27.0,27.27,NE,45,1.8,2.5,43,0.00,,,0.00,WUHU216HW,2013-02-08 14:05:00,
2013-02-08 07:10:00,48.1,26.5,27.27,SE,135,0.0,2.5,43,0.00,,,0.00,WUHU216HW,2013-02-08 14:10:00,
2013-02-08 07:15:00,47.7,26.7,27.26,ESE,113,1.3,1.6,44,0.00,,,0.00,WUHU216HW,2013-02-08 14:15:00,
2013-02-08 07:20:00,47.3,26.4,27.26,ESE,113,0.4,1.6,44,0.00,,,0.00,WUHU216HW,2013-02-08 14:20:00,
2013-02-08 07:25:00,47.0,26.6,27.27,SE,135,0.9,1.6,45,0.00,,,0.00,WUHU216HW,2013-02-08 14:25:00,
2013-02-08 07:30:00,46.8,26.5,27.27,East,90,1.3,1.8,45,0.00,,,0.00,WUHU216HW,2013-02-08 14:30:00,
2013-02-08 07:35:00,46.8,27.0,27.27,ESE,113,1.8,2.5,46,0.00,,,0.00,WUHU216HW,2013-02-08 14:35:00,
2013-02-08 07:40:00,47.0,27.1,27.27,SE,135,0.7,2.5,46,0.00,,,0.00,WUHU216HW,2013-02-08 14:40:00,
2013-02-08 07:45:00,47.2,26.7,27.27,ESE,113,0.4,2.2,45,0.00,,,0.00,WUHU216HW,2013-02-08 14:45:00,
2013-02-08 07:50:00,47.3,26.9,27.27,ESE,113,1.3,2.2,45,0.00,,,0.00,WUHU216HW,2013-02-08 14:50:00,
2013-02-08 07:55:00,47.5,27.1,27.27,ENE,68,1.8,2.9,45,0.00,,,0.00,WUHU216HW,2013-02-08 14:55:00,
2013-02-08 08:00:00,47.5,27.1,27.27,East,90,1.8,2.9,45,0.00,,,0.00,WUHU216HW,2013-02-08 15:00:00,
2013-02-08 08:05:00,47.5,27.1,27.27,ESE,113,1.1,2.5,45,0.00,,,0.00,WUHU216HW,2013-02-08 15:05:00,
2013-02-08 08:10:00,47.5,27.1,27.27,ESE,113,0.7,1.8,45,0.00,,,0.00,WUHU216HW,2013-02-08 15:10:00,
2013-02-08 08:15:00,47.5,27.1,27.27,ENE,68,2.5,2.5,45,0.00,,,0.00,WUHU216HW,2013-02-08 15:15:00,
2013-02-08 08:20:00,47.9,27.4,27.27,East,90,2.2,2.5,45,0.00,,,0.00,WUHU216HW,2013-02-08 15:20:00,
2013-02-08 08:25:00,48.1,27.5,27.27,ENE,68,1.8,2.5,45,0.00,,,0.00,WUHU216HW,2013-02-08 15:25:00,
2013-02-08 08:30:00,48.6,27.6,27.27,SE,135,2.5,2.7,44,0.00,,,0.00,WUHU216HW,2013-02-08 15:30:00,
2013-02-08 08:35:00,49.0,27.9,27.27,East,90,1.8,3.1,44,0.00,,,0.00,WUHU216HW,2013-02-08 15:35:00,
2013-02-08 08:40:00,49.5,27.8,27.27,ESE,113,1.8,3.1,43,0.00,,,0.00,WUHU216HW,2013-02-08 15:40:00,
2013-02-08 08:45:00,50.0,28.4,27.27,ENE,68,0.4,2.9,43,0.00,,,0.00,WUHU216HW,2013-02-08 15:45:00,
2013-02-08 08:50:00,50.4,28.6,27.28,ESE,113,0.9,2.5,43,0.00,,,0.00,WUHU216HW,2013-02-08 15:50:00,
2013-02-08 08:55:00,50.8,28.5,27.28,SE,135,1.1,1.8,42,0.00,,,0.00,WUHU216HW,2013-02-08 15:55:00,
2013-02-08 09:00:00,51.5,29.6,27.28,ENE,68,1.8,2.5,43,0.00,,,0.00,WUHU216HW,2013-02-08 16:00:00,
2013-02-08 09:05:00,52.2,29.7,27.28,East,90,1.6,2.5,42,0.00,,,0.00,WUHU216HW,2013-02-08 16:05:00,
2013-02-08 09:10:00,52.7,30.2,27.28,ENE,68,0.0,2.0,42,0.00,,,0.00,WUHU216HW,2013-02-08 16:10:00,
2013-02-08 09:15:00,53.3,30.2,27.29,ESE,113,0.4,1.6,41,0.00,,,0.00,WUHU216HW,2013-02-08 16:15:00,
2013-02-08 09:20:00,53.6,30.4,27.29,SE,135,0.4,1.1,41,0.00,,,0.00,WUHU216HW,2013-02-08 16:20:00,
2013-02-08 09:25:00,54.4,30.5,27.29,East,90,0.0,1.6,40,0.00,,,0.00,WUHU216HW,2013-02-08 16:25:00,
2013-02-08 09:30:00,54.9,30.3,27.29,ENE,68,0.4,1.6,39,0.00,,,0.00,WUHU216HW,2013-02-08 16:30:00,
2013-02-08 09:35:00,55.8,31.2,27.29,ESE,113,1.1,1.8,39,0.00,,,0.00,WUHU216HW,2013-02-08 16:35:00,
2013-02-08 09:40:00,56.5,31.1,27.29,ESE,113,1.1,2.7,38,0.00,,,0.00,WUHU216HW,2013-02-08 16:40:00,
2013-02-08 09:45:00,57.1,30.2,27.29,ENE,68,1.1,2.7,36,0.00,,,0.00,WUHU216HW,2013-02-08 16:45:00,
2013-02-08 09:50:00,58.0,31.0,27.29,ESE,113,1.3,2.9,36,0.00,,,0.00,WUHU216HW,2013-02-08 16:50:00,
2013-02-08 09:55:00,58.7,30.3,27.29,ESE,113,0.7,2.9,34,0.00,,,0.00,WUHU216HW,2013-02-08 16:55:00,
2013-02-08 10:00:00,59.4,30.2,27.29,ENE,68,1.1,2.5,33,0.00,,,0.00,WUHU216HW,2013-02-08 17:00:00,
2013-02-08 10:05:00,59.9,30.6,27.29,East,90,2.7,3.4,33,0.00,,,0.00,WUHU216HW,2013-02-08 17:05:00,
2013-02-08 10:11:00,60.7,30.4,27.29,ENE,68,0.4,3.4,32,0.00,,,0.00,WUHU216HW,2013-02-08 17:11:00,
2013-02-08 10:16:00,61.9,30.9,27.29,East,90,2.2,3.4,31,0.00,,,0.00,WUHU216HW,2013-02-08 17:16:00,
2013-02-08 10:21:00,63.2,31.2,27.29,East,90,0.4,5.4,30,0.00,,,0.00,WUHU216HW,2013-02-08 17:21:00,
2013-02-08 10:26:00,64.3,31.2,27.28,ESE,113,2.5,5.4,29,0.00,,,0.00,WUHU216HW,2013-02-08 17:26:00,
2013-02-08 10:31:00,64.6,31.6,27.28,West,270,0.4,4.0,29,0.00,,,0.00,WUHU216HW,2013-02-08 17:31:00,
2013-02-08 10:36:00,65.2,31.1,27.29,ESE,113,0.7,3.6,28,0.00,,,0.00,WUHU216HW,2013-02-08 17:36:00,
2013-02-08 10:41:00,65.5,29.3,27.28,ESE,113,2.2,4.9,26,0.00,,,0.00,WUHU216HW,2013-02-08 17:41:00,
2013-02-08 10:46:00,66.2,31.0,27.28,ESE,113,1.8,4.9,27,0.00,,,0.00,WUHU216HW,2013-02-08 17:46:00,
2013-02-08 10:51:00,67.1,29.7,27.28,SE,135,2.2,3.6,25,0.00,,,0.00,WUHU216HW,2013-02-08 17:51:00,
2013-02-08 10:56:00,67.3,29.9,27.28,SE,135,1.6,3.6,25,0.00,,,0.00,WUHU216HW,2013-02-08 17:56:00,
2013-02-08 11:01:00,66.8,27.5,27.28,SSW,203,3.8,5.1,23,0.00,,,0.00,WUHU216HW,2013-02-08 18:01:00,
2013-02-08 11:06:00,66.2,27.0,27.28,East,90,3.1,6.5,23,0.00,,,0.00,WUHU216HW,2013-02-08 18:06:00,
2013-02-08 11:11:00,66.2,27.0,27.27,ENE,68,2.9,7.2,23,0.00,,,0.00,WUHU216HW,2013-02-08 18:11:00,
2013-02-08 11:16:00,66.6,27.3,27.27,ENE,68,4.5,7.4,23,0.00,,,0.00,WUHU216HW,2013-02-08 18:16:00,
2013-02-08 11:21:00,66.8,26.5,27.27,South,180,5.4,7.4,22,0.00,,,0.00,WUHU216HW,2013-02-08 18:21:00,
2013-02-08 11:26:00,67.0,26.6,27.27,WSW,248,3.1,6.0,22,0.00,,,0.00,WUHU216HW,2013-02-08 18:26:00,
2013-02-08 11:31:00,67.3,26.9,27.27,SE,135,4.3,6.0,22,0.00,,,0.00,WUHU216HW,2013-02-08 18:31:00,
2013-02-08 11:36:00,67.7,27.2,27.27,SSW,203,3.4,5.1,22,0.00,,,0.00,WUHU216HW,2013-02-08 18:36:00,
2013-02-08 11:41:00,67.9,27.4,27.27,WSW,248,4.9,5.1,22,0.00,,,0.00,WUHU216HW,2013-02-08 18:41:00,
2013-02-08 11:46:00,67.9,27.4,27.27,West,270,4.0,7.8,22,0.00,,,0.00,WUHU216HW,2013-02-08 18:46:00,
2013-02-08 11:51:00,68.0,26.6,27.27,East,90,3.4,7.8,21,0.00,,,0.00,WUHU216HW,2013-02-08 18:51:00,
2013-02-08 11:56:00,68.0,26.6,27.26,East,90,4.0,7.6,21,0.00,,,0.00,WUHU216HW,2013-02-08 18:56:00,
2013-02-08 12:01:00,68.0,23.9,27.26,North,0,4.0,7.8,19,0.00,,,0.00,WUHU216HW,2013-02-08 19:01:00,
2013-02-08 12:06:00,67.9,22.2,27.26,ENE,68,2.7,7.8,18,0.00,,,0.00,WUHU216HW,2013-02-08 19:06:00,
2013-02-08 12:11:00,68.0,22.3,27.26,SE,135,4.3,7.8,18,0.00,,,0.00,WUHU216HW,2013-02-08 19:11:00,
2013-02-08 12:16:00,68.4,22.7,27.26,WSW,248,3.4,7.8,18,0.00,,,0.00,WUHU216HW,2013-02-08 19:16:00,
2013-02-08 12:21:00,68.8,23.0,27.25,SSW,203,2.5,6.0,18,0.00,,,0.00,WUHU216HW,2013-02-08 19:21:00,
2013-02-08 12:26:00,68.8,23.0,27.25,WSW,248,3.8,5.4,18,0.00,,,0.00,WUHU216HW,2013-02-08 19:26:00,
2013-02-08 12:31:00,68.4,21.1,27.25,SE,135,3.6,8.5,17,0.00,,,0.00,WUHU216HW,2013-02-08 19:31:00,
2013-02-08 12:36:00,68.4,21.1,27.25,WSW,248,6.3,8.5,17,0.00,,,0.00,WUHU216HW,2013-02-08 19:36:00,
2013-02-08 12:41:00,68.2,20.9,27.25,SE,135,6.7,9.8,17,0.00,,,0.00,WUHU216HW,2013-02-08 19:41:00,
2013-02-08 12:46:00,68.2,19.3,27.24,NNW,338,4.3,9.8,16,0.00,,,0.00,WUHU216HW,2013-02-08 19:46:00,
2013-02-08 12:51:00,68.4,21.1,27.24,WSW,248,4.5,7.4,17,0.00,,,0.00,WUHU216HW,2013-02-08 19:51:00,
2013-02-08 12:56:00,68.9,19.8,27.23,SSW,203,4.5,6.9,16,0.00,,,0.00,WUHU216HW,2013-02-08 19:56:00,
2013-02-08 13:01:00,68.9,19.8,27.23,SSW,203,3.6,8.3,16,0.00,,,0.00,WUHU216HW,2013-02-08 20:01:00,
2013-02-08 13:06:00,68.9,19.8,27.23,ESE,113,4.7,8.3,16,0.00,,,0.00,WUHU216HW,2013-02-08 20:06:00,
2013-02-08 13:11:00,68.8,19.7,27.23,NNE,23,3.4,7.2,16,0.00,,,0.00,WUHU216HW,2013-02-08 20:11:00,
2013-02-08 13:16:00,68.8,19.7,27.23,SW,225,4.7,7.4,16,0.00,,,0.00,WUHU216HW,2013-02-08 20:16:00,
2013-02-08 13:21:00,68.6,19.5,27.22,SSW,203,5.4,8.3,16,0.00,,,0.00,WUHU216HW,2013-02-08 20:21:00,
2013-02-08 13:26:00,68.4,19.5,27.22,West,270,8.5,8.5,16,0.00,,,0.00,WUHU216HW,2013-02-08 20:26:00,
2013-02-08 13:31:00,68.6,19.5,27.22,West,270,4.7,8.5,16,0.00,,,0.00,WUHU216HW,2013-02-08 20:31:00,
2013-02-08 13:36:00,68.8,18.1,27.22,South,180,5.8,8.5,15,0.00,,,0.00,WUHU216HW,2013-02-08 20:36:00,
2013-02-08 13:41:00,68.8,18.1,27.22,SW,225,7.8,8.5,15,0.00,,,0.00,WUHU216HW,2013-02-08 20:41:00,
2013-02-08 13:46:00,68.4,17.8,27.22,ESE,113,3.6,8.5,15,0.00,,,0.00,WUHU216HW,2013-02-08 20:46:00,
2013-02-08 13:51:00,68.6,17.9,27.22,WSW,248,6.7,7.8,15,0.00,,,0.00,WUHU216HW,2013-02-08 20:51:00,
2013-02-08 13:56:00,68.4,17.8,27.22,SSW,203,3.6,9.2,15,0.00,,,0.00,WUHU216HW,2013-02-08 20:56:00,
2013-02-08 14:01:00,68.6,17.9,27.22,SW,225,2.9,9.2,15,0.00,,,0.00,WUHU216HW,2013-02-08 21:01:00,
2013-02-08 14:06:00,68.8,18.1,27.21,WSW,248,3.4,6.7,15,0.00,,,0.00,WUHU216HW,2013-02-08 21:06:00,
2013-02-08 14:11:00,68.8,18.1,27.21,East,90,2.5,7.4,15,0.00,,,0.00,WUHU216HW,2013-02-08 21:11:00,
2013-02-08 14:16:00,68.9,15.0,27.21,SSW,203,5.4,8.5,13,0.00,,,0.00,WUHU216HW,2013-02-08 21:16:00,
2013-02-08 14:21:00,68.9,15.0,27.20,WNW,293,5.1,8.5,13,0.00,,,0.00,WUHU216HW,2013-02-08 21:21:00,
2013-02-08 14:26:00,68.8,14.9,27.20,South,180,3.8,6.7,13,0.00,,,0.00,WUHU216HW,2013-02-08 21:26:00,
2013-02-08 14:31:00,68.4,14.6,27.20,SE,135,5.4,7.2,13,0.00,,,0.00,WUHU216HW,2013-02-08 21:31:00,
2013-02-08 14:36:00,68.4,17.8,27.20,SSE,158,4.0,7.2,15,0.00,,,0.00,WUHU216HW,2013-02-08 21:36:00,
2013-02-08 14:41:00,68.2,16.1,27.20,SW,225,3.6,6.9,14,0.00,,,0.00,WUHU216HW,2013-02-08 21:41:00,
2013-02-08 14:46:00,68.6,17.9,27.20,SSE,158,3.4,6.0,15,0.00,,,0.00,WUHU216HW,2013-02-08 21:46:00,
2013-02-08 14:51:00,68.6,19.5,27.20,SE,135,4.0,5.8,16,0.00,,,0.00,WUHU216HW,2013-02-08 21:51:00,
2013-02-08 14:56:00,68.4,19.5,27.20,SSW,203,8.5,8.5,16,0.00,,,0.00,WUHU216HW,2013-02-08 21:56:00,
2013-02-08 15:01:00,68.2,19.3,27.20,SW,225,7.6,8.5,16,0.00,,,0.00,WUHU216HW,2013-02-08 22:01:00,
2013-02-08 15:06:00,68.0,19.2,27.20,South,180,4.7,8.5,16,0.00,,,0.00,WUHU216HW,2013-02-08 22:06:00,
2013-02-08 15:11:00,68.0,19.2,27.19,WNW,293,6.0,7.6,16,0.00,,,0.00,WUHU216HW,2013-02-08 22:11:00,
2013-02-08 15:16:00,67.7,18.8,27.20,WSW,248,6.0,6.9,16,0.00,,,0.00,WUHU216HW,2013-02-08 22:16:00,
2013-02-08 15:21:00,67.5,20.3,27.19,SW,225,3.8,7.4,17,0.00,,,0.00,WUHU216HW,2013-02-08 22:21:00,
2013-02-08 15:26:00,67.9,20.6,27.19,South,180,4.7,7.4,17,0.00,,,0.00,WUHU216HW,2013-02-08 22:26:00,
2013-02-08 15:31:00,67.7,20.4,27.19,SSE,158,3.4,6.0,17,0.00,,,0.00,WUHU216HW,2013-02-08 22:31:00,
2013-02-08 15:36:00,67.9,19.0,27.19,ESE,113,2.9,6.0,16,0.00,,,0.00,WUHU216HW,2013-02-08 22:36:00,
2013-02-08 15:41:00,68.0,19.2,27.19,SE,135,4.0,5.1,16,0.00,,,0.00,WUHU216HW,2013-02-08 22:41:00,
2013-02-08 15:46:00,68.0,19.2,27.18,ESE,113,4.9,7.4,16,0.00,,,0.00,WUHU216HW,2013-02-08 22:46:00,
2013-02-08 15:51:00,67.7,18.8,27.18,NW,315,2.5,7.4,16,0.00,,,0.00,WUHU216HW,2013-02-08 22:51:00,
2013-02-08 15:56:00,67.7,18.8,27.18,West,270,4.0,6.3,16,0.00,,,0.00,WUHU216HW,2013-02-08 22:56:00,
2013-02-08 16:01:00,67.7,20.4,27.18,SE,135,3.1,8.5,17,0.00,,,0.00,WUHU216HW,2013-02-08 23:01:00,
2013-02-08 16:06:00,67.7,20.4,27.18,NNE,23,3.6,8.5,17,0.00,,,0.00,WUHU216HW,2013-02-08 23:06:00,
2013-02-08 16:11:00,67.9,20.6,27.18,East,90,3.4,7.2,17,0.00,,,0.00,WUHU216HW,2013-02-08 23:11:00,
2013-02-08 16:16:00,68.2,20.9,27.18,NE,45,2.5,7.2,17,0.00,,,0.00,WUHU216HW,2013-02-08 23:16:00,
2013-02-08 16:21:00,68.0,19.2,27.18,ENE,68,5.4,9.4,16,0.00,,,0.00,WUHU216HW,2013-02-08 23:21:00,
2013-02-08 16:26:00,67.9,20.6,27.17,SSW,203,4.0,9.4,17,0.00,,,0.00,WUHU216HW,2013-02-08 23:26:00,
2013-02-08 16:31:00,67.7,20.4,27.17,SE,135,5.4,7.6,17,0.00,,,0.00,WUHU216HW,2013-02-08 23:31:00,
2013-02-08 16:36:00,67.9,20.6,27.17,SSE,158,4.0,6.9,17,0.00,,,0.00,WUHU216HW,2013-02-08 23:36:00,
2013-02-08 16:41:00,67.7,18.8,27.17,NW,315,3.6,6.3,16,0.00,,,0.00,WUHU216HW,2013-02-08 23:41:00,
2013-02-08 16:46:00,67.7,20.4,27.17,NNE,23,2.9,6.9,17,0.00,,,0.00,WUHU216HW,2013-02-08 23:46:00,
2013-02-08 16:51:00,67.3,20.2,27.17,ESE,113,2.9,8.3,17,0.00,,,0.00,WUHU216HW,2013-02-08 23:51:00,
2013-02-08 16:56:00,67.0,19.8,27.17,SW,225,5.4,8.3,17,0.00,,,0.00,WUHU216HW,2013-02-08 23:56:00,
2013-02-08 17:01:00,66.6,21.1,27.17,NW,315,5.1,6.3,18,0.00,,,0.00,WUHU216HW,2013-02-09 00:01:00,
2013-02-08 17:06:00,66.4,21.0,27.17,SSW,203,4.3,7.2,18,0.00,,,0.00,WUHU216HW,2013-02-09 00:06:00,
2013-02-08 17:11:00,66.2,20.8,27.17,SSE,158,6.5,7.2,18,0.00,,,0.00,WUHU216HW,2013-02-09 00:11:00,
2013-02-08 17:16:00,65.9,20.5,27.16,SW,225,7.2,7.2,18,0.00,,,0.00,WUHU216HW,2013-02-09 00:16:00,
2013-02-08 17:21:00,65.9,20.5,27.17,SE,135,5.1,7.2,18,0.00,,,0.00,WUHU216HW,2013-02-09 00:21:00,
2013-02-08 17:26:00,65.7,18.7,27.16,SE,135,2.5,7.2,17,0.00,,,0.00,WUHU216HW,2013-02-09 00:26:00,
2013-02-08 17:31:00,65.5,18.6,27.17,South,180,4.7,7.2,17,0.00,,,0.00,WUHU216HW,2013-02-09 00:31:00,
2013-02-08 17:36:00,65.3,20.1,27.17,ESE,113,4.9,7.2,18,0.00,,,0.00,WUHU216HW,2013-02-09 00:36:00,
2013-02-08 17:41:00,65.2,19.9,27.17,North,0,4.5,6.7,18,0.00,,,0.00,WUHU216HW,2013-02-09 00:41:00,
2013-02-08 17:46:00,65.2,18.4,27.16,SSE,158,5.1,6.9,17,0.00,,,0.00,WUHU216HW,2013-02-09 00:46:00,
2013-02-08 17:51:00,65.0,18.2,27.17,South,180,2.5,6.9,17,0.00,,,0.00,WUHU216HW,2013-02-09 00:51:00,
2013-02-08 17:56:00,64.8,18.0,27.16,South,180,3.6,6.9,17,0.00,,,0.00,WUHU216HW,2013-02-09 00:56:00,
2013-02-08 18:01:00,64.4,17.7,27.16,SSW,203,3.1,6.3,17,0.00,,,0.00,WUHU216HW,2013-02-09 01:01:00,
2013-02-08 18:06:00,64.1,17.5,27.16,NW,315,4.7,5.4,17,0.00,,,0.00,WUHU216HW,2013-02-09 01:06:00,
2013-02-08 18:11:00,63.7,17.2,27.16,SSW,203,5.4,5.8,17,0.00,,,0.00,WUHU216HW,2013-02-09 01:11:00,
2013-02-08 18:16:00,63.7,17.2,27.16,WSW,248,1.8,5.8,17,0.00,,,0.00,WUHU216HW,2013-02-09 01:16:00,
2013-02-08 18:21:00,63.4,18.5,27.16,SSW,203,2.2,5.6,18,0.00,,,0.00,WUHU216HW,2013-02-09 01:21:00,
2013-02-08 18:26:00,63.0,18.2,27.16,NNE,23,1.1,5.6,18,0.00,,,0.00,WUHU216HW,2013-02-09 01:26:00,
2013-02-08 18:31:00,62.6,17.9,27.16,NW,315,3.1,5.4,18,0.00,,,0.00,WUHU216HW,2013-02-09 01:31:00,
2013-02-08 18:36:00,62.3,17.6,27.16,SSW,203,2.5,4.7,18,0.00,,,0.00,WUHU216HW,2013-02-09 01:36:00,
2013-02-08 18:41:00,62.1,19.1,27.16,South,180,2.7,4.0,19,0.00,,,0.00,WUHU216HW,2013-02-09 01:41:00,
2013-02-08 18:46:00,61.7,18.8,27.16,NW,315,2.5,4.3,19,0.00,,,0.00,WUHU216HW,2013-02-09 01:46:00,
2013-02-08 18:51:00,61.6,21.2,27.16,ENE,68,3.6,4.3,21,0.00,,,0.00,WUHU216HW,2013-02-09 01:51:00,
2013-02-08 18:56:00,61.6,21.2,27.16,NNW,338,0.9,4.0,21,0.00,,,0.00,WUHU216HW,2013-02-09 01:56:00,
2013-02-08 19:01:00,61.4,21.0,27.16,SSW,203,2.9,4.5,21,0.00,,,0.00,WUHU216HW,2013-02-09 02:01:00,
2013-02-08 19:06:00,61.2,20.9,27.16,NW,315,3.4,4.5,21,0.00,,,0.00,WUHU216HW,2013-02-09 02:06:00,
2013-02-08 19:11:00,61.2,20.9,27.16,SW,225,5.8,6.0,21,0.00,,,0.00,WUHU216HW,2013-02-09 02:11:00,
2013-02-08 19:16:00,61.2,20.9,27.16,SSW,203,2.9,6.0,21,0.00,,,0.00,WUHU216HW,2013-02-09 02:16:00,
2013-02-08 19:21:00,61.2,20.9,27.16,ESE,113,3.4,6.0,21,0.00,,,0.00,WUHU216HW,2013-02-09 02:21:00,
2013-02-08 19:26:00,61.0,20.7,27.15,WSW,248,5.8,6.0,21,0.00,,,0.00,WUHU216HW,2013-02-09 02:26:00,
2013-02-08 19:31:00,60.8,20.6,27.15,ESE,113,4.0,5.8,21,0.00,,,0.00,WUHU216HW,2013-02-09 02:31:00,
2013-02-08 19:36:00,60.8,21.5,27.15,East,90,1.1,7.4,22,0.00,,,0.00,WUHU216HW,2013-02-09 02:36:00,
2013-02-08 19:41:00,60.7,21.3,27.15,SE,135,3.6,7.4,22,0.00,,,0.00,WUHU216HW,2013-02-09 02:41:00,
2013-02-08 19:46:00,60.5,21.3,27.15,SSE,158,2.5,4.7,22,0.00,,,0.00,WUHU216HW,2013-02-09 02:46:00,
2013-02-08 19:51:00,60.3,21.1,27.16,SW,225,2.9,4.5,22,0.00,,,0.00,WUHU216HW,2013-02-09 02:51:00,
2013-02-08 19:56:00,60.1,20.9,27.15,SW,225,2.5,4.9,22,0.00,,,0.00,WUHU216HW,2013-02-09 02:56:00,
2013-02-08 20:01:00,59.9,20.7,27.15,SE,135,4.3,4.9,22,0.00,,,0.00,WUHU216HW,2013-02-09 03:01:00,
2013-02-08 20:06:00,59.9,21.7,27.15,NNW,338,2.0,6.0,23,0.00,,,0.00,WUHU216HW,2013-02-09 03:06:00,
2013-02-08 20:11:00,59.8,21.5,27.15,NNW,338,5.8,6.0,23,0.00,,,0.00,WUHU216HW,2013-02-09 03:11:00,
2013-02-08 20:16:00,59.9,21.7,27.15,SE,135,1.8,5.8,23,0.00,,,0.00,WUHU216HW,2013-02-09 03:16:00,
2013-02-08 20:21:00,59.9,21.7,27.15,SSW,203,1.6,5.8,23,0.00,,,0.00,WUHU216HW,2013-02-09 03:21:00,
2013-02-08 20:26:00,59.8,22.5,27.15,NW,315,4.0,5.4,24,0.00,,,0.00,WUHU216HW,2013-02-09 03:26:00,
2013-02-08 20:31:00,59.6,22.3,27.15,South,180,2.9,5.6,24,0.00,,,0.00,WUHU216HW,2013-02-09 03:31:00,
2013-02-08 20:36:00,59.4,23.1,27.16,WSW,248,4.7,5.6,25,0.00,,,0.00,WUHU216HW,2013-02-09 03:36:00,
2013-02-08 20:41:00,59.2,23.1,27.16,SSW,203,3.6,5.6,25,0.00,,,0.00,WUHU216HW,2013-02-09 03:41:00,
2013-02-08 20:46:00,59.0,24.9,27.16,NE,45,4.9,4.9,27,0.00,,,0.00,WUHU216HW,2013-02-09 03:46:00,
2013-02-08 20:51:00,58.9,26.6,27.16,WSW,248,1.1,5.1,29,0.00,,,0.00,WUHU216HW,2013-02-09 03:51:00,
2013-02-08 20:56:00,58.5,27.3,27.17,North,0,1.8,5.1,30,0.00,,,0.00,WUHU216HW,2013-02-09 03:56:00,
2013-02-08 21:01:00,58.1,28.4,27.17,SE,135,2.2,4.0,32,0.00,,,0.00,WUHU216HW,2013-02-09 04:01:00,
2013-02-08 21:06:00,58.0,29.5,27.17,West,270,1.8,2.9,34,0.00,,,0.00,WUHU216HW,2013-02-09 04:06:00,
2013-02-08 21:11:00,57.4,31.1,27.17,SW,225,1.6,3.1,37,0.00,,,0.00,WUHU216HW,2013-02-09 04:11:00,
2013-02-08 21:16:00,56.7,33.8,27.17,WNW,293,2.2,3.1,42,0.00,,,0.00,WUHU216HW,2013-02-09 04:16:00,
2013-02-08 21:21:00,56.2,33.8,27.17,West,270,0.7,2.7,43,0.00,,,0.00,WUHU216HW,2013-02-09 04:21:00,
2013-02-08 21:26:00,55.8,32.9,27.17,WSW,248,0.0,2.7,42,0.00,,,0.00,WUHU216HW,2013-02-09 04:26:00,
2013-02-08 21:31:00,55.3,33.6,27.17,West,270,0.0,1.8,44,0.00,,,0.00,WUHU216HW,2013-02-09 04:31:00,
2013-02-08 21:36:00,54.9,33.2,27.17,WSW,248,0.4,1.8,44,0.00,,,0.00,WUHU216HW,2013-02-09 04:36:00,
2013-02-08 21:41:00,54.7,34.2,27.17,NW,315,0.4,3.1,46,0.00,,,0.00,WUHU216HW,2013-02-09 04:41:00,
2013-02-08 21:46:00,54.4,33.8,27.18,NW,315,0.4,3.1,46,0.00,,,0.00,WUHU216HW,2013-02-09 04:46:00,
2013-02-08 21:51:00,53.8,32.3,27.18,SSE,158,1.8,1.8,44,0.00,,,0.00,WUHU216HW,2013-02-09 04:51:00,
2013-02-08 21:56:00,54.2,31.0,27.18,SSE,158,2.5,5.4,41,0.00,,,0.00,WUHU216HW,2013-02-09 04:56:00,
2013-02-08 22:00:00,54.4,30.5,27.18,SE,135,3.4,5.4,40,0.00,,,0.00,WUHU216HW,2013-02-09 05:00:00,
2013-02-08 22:05:00,54.4,30.5,27.18,South,180,2.5,4.9,40,0.00,,,0.00,WUHU216HW,2013-02-09 05:05:00,
2013-02-08 22:10:00,54.2,29.7,27.18,SW,225,5.1,6.9,39,0.00,,,0.00,WUHU216HW,2013-02-09 05:10:00,
2013-02-08 22:15:00,53.8,25.9,27.18,ENE,68,3.4,6.9,34,0.00,,,0.00,WUHU216HW,2013-02-09 05:15:00,
2013-02-08 22:20:00,53.6,25.1,27.19,WSW,248,4.3,8.1,33,0.00,,,0.00,WUHU216HW,2013-02-09 05:20:00,
2013-02-08 22:25:00,53.6,24.4,27.19,SSE,158,6.5,9.2,32,0.00,,,0.00,WUHU216HW,2013-02-09 05:25:00,
2013-02-08 22:30:00,53.5,22.9,27.20,WNW,293,3.6,9.2,30,0.00,,,0.00,WUHU216HW,2013-02-09 05:30:00,
2013-02-08 22:35:00,53.1,23.2,27.20,NW,315,5.6,9.2,31,0.00,,,0.00,WUHU216HW,2013-02-09 05:35:00,
2013-02-08 22:40:00,52.6,23.4,27.20,SW,225,4.0,6.7,32,0.00,,,0.00,WUHU216HW,2013-02-09 05:40:00,
2013-02-08 22:45:00,52.0,23.0,27.20,SSW,203,4.7,5.6,32,0.00,,,0.00,WUHU216HW,2013-02-09 05:45:00,
2013-02-08 22:50:00,51.8,23.5,27.20,WSW,248,5.4,7.2,33,0.00,,,0.00,WUHU216HW,2013-02-09 05:50:00,
2013-02-08 22:55:00,51.5,23.1,27.20,NNW,338,4.7,7.2,33,0.00,,,0.00,WUHU216HW,2013-02-09 05:55:00,
2013-02-08 23:00:00,51.5,23.1,27.20,South,180,5.4,9.2,33,0.00,,,0.00,WUHU216HW,2013-02-09 06:00:00,
2013-02-08 23:05:00,51.5,23.9,27.20,NW,315,10.3,10.3,34,0.00,,,0.00,WUHU216HW,2013-02-09 06:05:00,
2013-02-08 23:10:00,51.3,23.7,27.20,SSW,203,6.0,11.2,34,0.00,,,0.00,WUHU216HW,2013-02-09 06:10:00,
2013-02-08 23:15:00,51.3,25.0,27.20,SW,225,5.1,11.2,36,0.00,,,0.00,WUHU216HW,2013-02-09 06:15:00,
2013-02-08 23:20:00,51.3,25.0,27.20,SW,225,4.7,9.8,36,0.00,,,0.00,WUHU216HW,2013-02-09 06:20:00,
2013-02-08 23:25:00,51.1,25.6,27.20,NW,315,6.7,8.9,37,0.00,,,0.00,WUHU216HW,2013-02-09 06:25:00,
2013-02-08 23:30:00,50.8,25.2,27.20,WSW,248,7.4,10.5,37,0.00,,,0.00,WUHU216HW,2013-02-09 06:30:00,
2013-02-08 23:35:00,50.8,25.2,27.20,South,180,4.9,10.5,37,0.00,,,0.00,WUHU216HW,2013-02-09 06:35:00,
2013-02-08 23:40:00,50.6,25.1,27.19,NNW,338,3.6,8.7,37,0.00,,,0.00,WUHU216HW,2013-02-09 06:40:00,
2013-02-08 23:45:00,50.4,25.6,27.20,SW,225,6.3,8.7,38,0.00,,,0.00,WUHU216HW,2013-02-09 06:45:00,
2013-02-08 23:50:00,50.2,25.5,27.20,West,270,6.0,8.3,38,0.00,,,0.00,WUHU216HW,2013-02-09 06:50:00,
2013-02-08 23:55:00,50.0,25.3,27.20,WSW,248,4.9,8.3,38,0.00,,,0.00,WUHU216HW,2013-02-09 06:55:00,